Murcia Airport, Spain

5:21 AM CEST on June 27, 2017 (GMT +0200)
San Javier Air Base

Weather History for LELC - April, 2014

Change the Weather History Date:

Sunday, April 20, 2014

  Actual Average Record
Temperature  
Mean Temperature 66 °F -  
Max Temperature 77 °F 69 °F 77 °F (2014)
Min Temperature 54 °F 56 °F 46 °F (1999)
Growing Degree Days 16 (Base 50)    
Moisture  
Dew Point 48 °F    
Average Humidity 44    
Maximum Humidity 88    
Minimum Humidity 18    
Precipitation  
Precipitation 0.00 in 0.03 in - ()
Sea Level Pressure  
Sea Level Pressure 29.64 in    
Wind  
Wind Speed 10 mph ()    
Max Wind Speed 23 mph    
Max Gust Speed -    
Visibility 6.2 miles    
Events      
Averages and records for this station are not official NWS values.
T = Trace of Precipitation, MM = Missing Value Source: Averaged Metar Reports

Daily Weather History Graph

Daily Weather History Graph

Search for Another Location

Airport or City:

Trip Planner

Search our weather history database for the weather conditions in past years. The results will help you decide how hot, cold, wet, or windy it might be!

Date:

Astronomy

Apr. 20, 2014 Rise Set
Actual Time 7:21 AM CEST 8:43 PM CEST
Civil Twilight 6:54 AM CEST 9:10 PM CEST
Nautical Twilight 6:21 AM CEST 9:43 PM CEST
Astronomical Twilight 5:47 AM CEST 10:18 PM CEST
Moon 1:07 AM CEST (4/20) 11:28 AM CEST (4/20)
Length of Visible Light 14h 16m
Length of Day
13h 21m
Waning Gibbous, 71% of the Moon is Illuminated
Apr 20
Waning Gibbous
Apr 22
Last Quarter
Apr 29
New
May 7
First Quarter
May 14
Full

Hourly Weather History & Observations

Time (CEST) Temp. Dew Point Humidity Pressure Visibility Wind Dir Wind Speed Gust Speed Precip Events Conditions
8:00 AM 57 °F 52 °F 77% 29.69 in 31 mi West 6.9 mph - -   Scattered Clouds
8:00 AM 55.4 °F 51.8 °F 88% 29.68 in 6.2 mi West 5.8 mph - N/A   Partly Cloudy
9:00 AM 64.4 °F 46.4 °F 52% 29.68 in - SW 4.6 mph - N/A   Clear
10:00 AM 68.0 °F 42.8 °F 40% 29.68 in - WSW 8.1 mph - N/A   Clear
11:00 AM 74 °F 39 °F 18% 29.69 in 40 mi WSW 11.5 mph - -   Scattered Clouds
11:00 AM 71.6 °F 39.2 °F 31% 29.68 in - WSW 9.2 mph - N/A   Clear
12:00 PM 71.6 °F 48.2 °F 43% 29.68 in 6.2 mi SSW 16.1 mph - N/A   Partly Cloudy
1:00 PM 75.2 °F 44.6 °F 34% 29.65 in 6.2 mi South 12.7 mph - N/A   Partly Cloudy
2:00 PM 77 °F 49 °F 27% 29.66 in 31 mi South 17.3 mph - -   Scattered Clouds
2:00 PM 73.4 °F 48.2 °F 41% 29.65 in 6.2 mi SSW 17.3 mph - N/A   Partly Cloudy
3:00 PM 75.2 °F 46.4 °F 36% 29.62 in 6.2 mi SSW 18.4 mph - N/A   Partly Cloudy
4:00 PM 73.4 °F 53.6 °F 50% 29.62 in 6.2 mi SSW 19.6 mph - N/A   Partly Cloudy
5:00 PM 75 °F 55 °F 39% 29.61 in 22 mi SSW 23.0 mph - -   Scattered Clouds
5:00 PM 73.4 °F 53.6 °F 50% 29.59 in 6.2 mi SSW 19.6 mph - N/A   Partly Cloudy
6:00 PM 71.6 °F 55.4 °F 57% 29.59 in 6.2 mi SSW 19.6 mph - N/A   Partly Cloudy
7:00 PM 71.6 °F 55.4 °F 57% 29.59 in 6.2 mi SSW 12.7 mph - N/A   Partly Cloudy
8:00 PM 74 °F 46 °F 25% 29.61 in 37 mi SSW 16.1 mph - -   Scattered Clouds
8:00 PM 73.4 °F 46.4 °F 38% 29.59 in 6.2 mi SW 13.8 mph - N/A   Partly Cloudy
9:00 PM 69.8 °F 48.2 °F 46% 29.62 in 6.2 mi SW 13.8 mph - N/A   Partly Cloudy
10:00 PM 69.8 °F 46.4 °F 43% 29.65 in 6.2 mi WSW 8.1 mph - N/A   Partly Cloudy
11:00 PM 67 °F 44 °F 32% 29.67 in 31 mi WSW 5.8 mph - -   Scattered Clouds
11:00 PM 68.0 °F 46.4 °F 46% 29.65 in 6.2 mi WSW 5.8 mph - N/A   Partly Cloudy